Powrót do katalogu

STARLINK-4010

AktywnyŁącznośćVLEO
NORAD 52862·PAYLOAD·🇺🇸 United States

Wystrzelony Jun 17, 2022 z Cape Canaveral Space Force Station

Loading…

Następne Przeloty (najbliższe 24 godziny)

TLE

ŚwieżeSource: CelesTrak SupGP

Epoka: Sep 14, 2026, 20:51 UTC

1 52862C 22062AJ  26257.86923611  .00035412  00000+0  10466-2 0  2573
2 52862  53.1573 239.9306 0001252  93.4423 121.5170 15.34364235    10

Śledź STARLINK-4010 w czasie rzeczywistym z AllMySat

Download on the App Store